User: anonymous   Login
Location: Unspecified
(0.0000°N, 0.0000°E)
Time: 13:26:36
(UTC+01:00)
Language:

Cosmos 1943 Rocket - Orbit

View from above orbital plane
View from above orbital plane
View from above satellite
View from above satellite

Ground track
Ground track

The orbit data is extracted from the following two-line orbital elements,

1 19120U 88039B   15026.05783784 -.00000229  00000-0 -86318-4 0  2580
2 19120 071.0167 009.6806 0019477 085.4579 333.7884 14.19081228382524
Epoch (UTC): 26 January 2015 01:23:17
Eccentricity: 0.0019477
inclination: 71.0167°
perigee height: 814 km
apogee height: 842 km
right ascension of ascending node: 9.6806°
argument of perigee: 85.4579°
revolutions per day: 14.19081228
mean anomaly at epoch: 333.7884°
orbit number at epoch: 38252

The dashed part of the orbit path shows where the satellite is in the earth's shadow,  

DLR